Torna al catalogo

STARLINK-36934

AttivoComunicazioniVLEO
NORAD 68279·PAYLOAD·🇺🇸 United States

Lanciato Mar 19, 2026 da Vandenberg Space Force Base

Loading…

Prossimi Passaggi (prossime 24 ore)

TLE

AggiornatoSource: CelesTrak SupGP

Epoca: Sep 15, 2026, 02:59 UTC

1 68279C 26055T   26258.12479167 -.00007214  00000+0 -21317-3 0  2580
2 68279  53.1581 155.0305 0001203  88.5139 334.4359 15.34389568    10

Traccia STARLINK-36934 in tempo reale con AllMySat

Download on the App Store